Hourly Data Report for June 25, 2012

All times are specified in Local Standard Time (LST). Add 1 hour to adjust for Daylight Saving Time where and when it is observed.

SAINT JOHN A
NEW BRUNSWICK

45°18'58.000" N
65°53'24.000" W
108.80 m
8104901
71609
YSJ

Download Data

Hourly Data (June 2012)
Hourly Data Report for June 25, 2012
Temp Definition
°C
Dew Point Temp Definition
°C
Rel Hum Definition
%
Wind Dir Definition
10's deg

Wind Spd Definition
km/h
Visibility Definition
km
Stn Press Definition
kPa
Hmdx Definition


Wind Chill Definition


Weather Definition


TIME
00:00 Legend Double Dagger 12.7 12.7 100 17 6 4.8 99.83     Fog
01:00 Legend Double Dagger 13.3 13.3 100 19 9 0.4 99.84     Fog
02:00 Legend Double Dagger 12.8 12.8 100   0 0.4 99.81     Fog
03:00 Legend Double Dagger 11.4 11.4 100 7 4 0.4 99.76     Fog
04:00 Legend Double Dagger 10.6 10.6 100 20 6 0.8 99.77     Fog
05:00 Legend Double Dagger 11.9 11.9 100 22 4 0.2 99.78     Fog
06:00 Legend Double Dagger 12.9 12.9 100   0 9.7 99.80     Fog
07:00 Legend Double Dagger 15.3 15.3 100 19 9 10.0 99.83     LegendNANA
08:00 Legend Double Dagger 16.8 15.2 90 18 13 10.0 99.87     Mostly Cloudy
09:00 Legend Double Dagger 16.9 14.6 86 18 14 10.0 99.83     LegendNANA
10:00 Legend Double Dagger 16.9 14.4 85 17 15 10.0 99.85     LegendNANA
11:00 Legend Double Dagger 19.0 14.5 75 18 19 10.0 99.83     Mostly Cloudy
12:00 Legend Double Dagger 20.2 14.9 71 18 25 10.0 99.80     LegendNANA
13:00 Legend Double Dagger 21.7 14.7 64 21 31 10.0 99.83 25   LegendNANA
14:00 Legend Double Dagger 23.2 14.9 59 20 23 10.0 99.78 27   Mostly Cloudy
15:00 Legend Double Dagger 22.8 12.9 53 19 30 10.0 99.78 26   LegendNANA
16:00 Legend Double Dagger 22.0 13.5 58 20 24 10.0 99.79 25   LegendNANA
17:00 Legend Double Dagger 21.2 13.0 59 20 26 10.0 99.76     Mostly Cloudy
18:00 Legend Double Dagger 20.4 13.2 63 21 15 10.0 99.76     LegendNANA
19:00 Legend Double Dagger 18.1 13.0 72 22 10 10.0 99.74     LegendNANA
20:00 Legend Double Dagger 16.3 12.7 79 18 9 10.0 99.74     Mostly Cloudy
21:00 Legend Double Dagger 15.4 12.7 84 13 11 10.0 99.78     LegendNANA
22:00 Legend Double Dagger 16.9 12.7 76 13 17 10.0 99.79     LegendNANA
23:00 Legend Double Dagger 16.6 13.4 81 12 14 10.0 99.74     Cloudy

Notes on Data Quality.

Legend

  • E = Estimated
  • M = Missing
  • NA = Not Available
  • ‡ = Partner data that is not subject to review by the National Climate Archives
Date modified: